EHI
9 9 11 12 14 14 15 15 15 17 21 21 18 17 17 15 12 11 12 13 12 9 8 8 7 6 5 2 0 0 0 0 0 0 0 0 0 0 0 1 1 0 0
10 12 14 16 18 17 16 17 17 18 20 20 18 16 16 14 13 13 13 14 13 11 9 8 7 7 5 1 0 0 0 0 0 0 0 0 0 0 0 1 1 0 0
12 15 19 21 22 21 20 21 21 22 22 21 20 18 17 16 15 15 15 15 14 12 9 7 7 5 3 1 0 0 0 0 0 0 0 0 0 0 0 1 1 0 0
13 17 20 21 21 23 25 26 26 26 26 25 22 20 19 19 18 16 15 14 13 10 8 6 5 4 3 1 0 0 0 0 0 0 0 0 0 0 0 0 0 0 0
16 19 21 19 18 22 26 28 28 28 27 26 22 19 19 19 18 18 17 14 11 9 7 6 4 3 3 2 1 0 0 0 0 0 0 0 0 0 0 0 0 0 0
19 23 25 23 20 22 26 27 27 27 26 26 23 20 19 19 19 20 18 14 11 9 8 7 5 3 3 3 2 1 1 1 0 0 0 0 0 0 0 0 0 0 0
21 25 30 30 27 26 26 25 25 26 26 25 23 21 20 19 18 18 17 13 10 8 7 7 7 5 4 3 3 3 2 2 1 1 0 0 0 0 0 0 0 0 0
20 24 29 31 29 27 25 23 24 25 25 23 21 21 20 18 16 15 13 11 9 7 6 6 7 7 5 4 3 3 3 2 2 2 1 0 0 0 0 0 0 0 0
18 21 24 26 25 22 21 21 21 23 24 23 20 19 19 18 16 13 11 9 7 6 5 5 6 5 5 4 3 3 3 2 2 3 2 1 0 0 0 0 0 0 0
14 16 18 19 18 17 18 19 19 21 22 22 20 18 17 15 14 13 10 8 6 6 5 4 4 4 4 3 2 3 2 2 2 2 2 1 0 1 0 0 0 0 0
10 11 12 14 14 15 16 17 17 19 21 22 20 17 15 13 13 12 9 7 6 5 4 4 5 4 3 3 3 3 1 1 1 1 1 0 0 0 0 0 0 0 0
6 7 8 10 12 14 15 15 15 17 19 20 19 17 15 14 14 12 9 8 7 5 4 5 6 4 3 4 4 3 1 0 0 1 1 1 0 0 0 0 0 0 0
5 4 4 6 9 12 13 14 14 15 14 15 15 15 15 14 13 11 10 9 7 5 5 6 7 5 4 4 4 3 1 1 0 1 2 1 0 0 0 0 0 0 0
3 3 3 5 8 11 11 12 13 12 9 8 10 11 12 12 11 10 9 8 6 5 6 6 7 6 5 5 4 3 3 2 1 1 2 1 0 0 0 0 0 0 0
1 2 3 5 7 9 10 10 10 8 5 4 5 6 7 9 9 9 7 6 4 5 6 7 7 7 7 7 5 4 4 5 4 3 2 0 0 0 0 0 0 0 0
1 1 3 5 6 7 7 6 6 5 3 2 3 3 4 5 8 8 6 4 3 4 6 7 8 8 8 7 5 4 5 7 6 5 3 1 1 0 0 0 0 0 0
3 3 4 4 4 3 3 2 3 3 3 3 3 2 2 3 5 7 6 3 3 5 7 7 7 7 6 4 2 2 5 7 7 5 3 2 2 1 0 0 0 0 0
4 4 5 4 3 2 1 0 2 3 3 3 3 2 2 3 4 5 5 3 4 5 6 7 7 6 5 2 0 1 3 6 5 2 1 1 2 1 0 0 0 0 0
4 4 4 4 4 2 1 0 1 3 3 3 4 3 3 5 5 4 4 3 3 4 4 5 6 6 4 1 0 0 2 4 3 1 0 0 1 1 0 0 0 0 0
4 3 3 3 4 2 1 1 2 3 4 4 5 5 5 6 6 5 4 4 3 3 3 4 5 6 4 1 0 1 2 3 2 2 1 0 0 0 0 0 0 0 0
5 3 1 1 2 1 1 1 2 3 4 5 6 5 5 5 6 6 6 5 5 5 4 4 5 5 4 2 1 1 2 3 3 2 1 0 0 0 0 0 0 0 0
7 4 2 1 1 0 0 1 1 2 4 4 5 4 4 4 4 4 5 7 8 8 7 6 6 5 4 2 1 1 2 3 3 3 2 0 0 0 0 0 0 0 0
7 6 4 2 1 0 0 0 0 1 2 2 1 1 2 2 2 2 4 6 8 9 9 8 6 4 2 1 0 0 1 1 3 3 1 0 0 0 0 0 0 0 0
6 5 4 3 2 1 1 1 0 0 0 0 0 0 1 1 0 1 2 4 6 8 9 8 6 4 1 0 0 0 0 1 2 2 1 0 0 0 0 0 0 0 0
3 3 3 3 3 3 2 2 1 0 0 0 0 0 0 0 0 0 0 1 3 5 6 5 5 3 1 0 0 0 0 1 1 1 0 0 0 0 0 0 0 0 0
1 1 2 3 3 3 3 3 2 1 0 0 0 0 0 0 0 0 0 0 1 2 2 2 3 2 1 0 0 0 0 1 0 0 0 0 0 0 0 0 0 0 0
Wind_Speed
7 8 8 8 7 6 6 6 5 4 4 3 3 3 2 2 2 2 3 3 3 3 3 3 2 2 2 1 2 2 2 1 1 2 2 3 2 0 1 1 1 1 1
6 7 7 7 8 8 7 6 5 5 4 3 3 3 3 2 2 1 2 2 3 3 3 3 2 2 2 2 2 2 2 0 1 2 2 2 3 3 1 1 1 1 1
10 9 9 8 8 8 8 7 5 5 4 4 3 3 2 2 2 1 0 1 3 3 3 3 3 2 2 2 1 2 2 1 0 1 3 2 2 2 3 2 1 1 1
8 8 9 8 9 9 8 7 6 6 5 5 5 5 4 2 2 1 1 1 2 3 4 4 3 2 2 2 2 2 1 2 1 1 0 2 3 2 2 3 2 2 1
8 8 8 9 8 7 7 6 5 5 5 5 6 5 3 2 2 2 2 1 1 2 3 3 3 2 2 2 2 2 2 2 2 1 0 0 1 1 2 2 3 3 2
7 7 7 7 6 6 6 6 6 4 4 5 6 6 5 3 3 2 2 1 0 0 1 2 3 3 2 2 2 2 2 1 1 1 1 1 1 1 1 2 2 2 3
6 7 7 6 6 6 6 6 6 4 3 4 4 5 5 5 4 3 2 2 1 1 2 2 2 2 2 2 2 2 2 2 2 2 1 1 1 2 2 1 1 1 2
5 5 6 6 5 4 5 6 6 6 5 5 4 3 4 3 3 3 3 3 2 2 2 2 2 2 3 3 2 1 2 1 2 2 2 1 1 1 1 2 2 0 2
4 4 4 4 4 4 4 6 6 5 5 5 4 3 4 3 3 3 2 2 2 2 2 2 2 2 3 3 3 2 2 2 2 2 1 1 1 1 1 1 2 3 1
3 3 3 3 3 4 4 4 4 4 4 4 4 4 4 4 3 3 2 2 2 2 2 2 2 2 2 2 3 2 2 2 1 1 1 1 1 1 0 1 1 2 3
5 4 3 3 3 4 4 4 3 3 3 3 3 4 3 4 4 3 3 3 2 2 3 3 3 2 2 2 2 3 3 3 2 1 2 2 1 0 0 1 1 1 2
4 4 3 3 3 3 4 3 3 3 3 3 3 3 3 3 4 4 4 4 4 3 3 3 3 3 2 2 3 3 3 3 3 3 2 2 2 1 1 0 1 1 1
4 4 3 2 2 2 3 3 2 2 3 3 3 3 3 3 4 5 4 4 3 3 2 2 3 3 3 3 3 4 3 4 4 3 3 3 2 2 2 1 1 1 1
4 3 3 1 1 2 2 3 3 2 2 2 3 2 3 4 4 4 4 3 3 2 2 2 2 3 3 3 3 3 3 3 3 4 4 4 4 4 3 2 2 1 0
3 2 3 2 2 1 2 2 2 2 2 2 2 3 3 2 2 3 3 3 3 3 2 2 2 2 2 3 3 4 4 3 3 3 3 3 4 5 4 2 2 2 1
1 2 2 3 3 2 2 2 2 2 2 2 2 2 2 1 2 2 2 2 3 2 3 3 3 3 3 4 5 4 4 3 3 3 3 2 3 4 4 3 3 3 3
2 2 2 3 3 3 2 3 3 2 3 3 3 3 3 3 3 2 2 2 3 3 3 3 3 3 4 4 5 6 4 4 4 4 3 2 2 2 1 2 2 3 5
2 2 2 2 2 2 2 2 2 3 3 3 3 3 3 3 3 2 3 3 3 3 3 3 3 3 5 5 6 6 4 3 4 4 4 4 3 3 2 2 1 2 3
1 2 2 2 1 2 2 1 2 2 2 3 3 3 3 3 3 3 3 3 2 3 3 3 4 4 5 5 5 4 3 3 4 3 3 3 3 3 2 2 1 2 3
0 0 0 0 1 2 2 1 2 2 2 3 3 3 3 3 4 4 4 3 3 3 3 3 3 4 3 4 4 4 2 3 3 2 2 3 3 3 2 2 2 3 3
0 0 0 0 1 1 1 2 2 4 4 3 3 2 3 3 3 3 3 2 2 2 2 3 3 3 4 4 5 6 3 4 3 2 2 2 3 3 3 3 3 5 3
1 0 0 1 1 1 1 1 3 4 3 2 2 2 2 3 2 2 3 2 2 2 2 2 2 2 3 3 5 7 6 4 3 3 2 2 4 3 3 3 4 4 2
2 1 1 1 1 1 1 3 4 3 2 2 2 2 2 2 2 2 3 2 2 2 3 3 2 2 2 2 4 5 5 5 3 3 3 3 4 3 3 4 3 2 1
2 1 0 1 2 2 3 4 4 2 2 2 1 1 1 1 1 2 2 2 2 3 3 3 2 2 2 2 1 2 2 3 2 1 1 2 2 1 2 2 2 1 2
1 1 1 2 3 3 3 3 2 1 1 2 2 1 1 1 1 2 2 3 3 4 4 4 3 3 3 4 5 4 3 3 3 2 1 1 0 0 1 1 1 1 0
1 1 1 2 3 3 3 3 2 1 2 2 2 2 1 1 1 1 2 3 3 3 4 5 4 3 5 5 5 5 4 4 5 4 2 2 2 2 2 1 1 1 1
Wind_Direction
174 159 151 148 136 134 137 132 128 135 133 136 141 140 146 152 142 155 156 142 134 132 126 117 107 108 114 120 115 107 88 50 66 68 17 353 347 310 252 228 223 241 219
158 161 156 152 148 150 149 144 145 144 147 161 159 152 148 154 154 154 138 142 135 136 140 127 127 124 118 101 95 107 105 129 105 114 90 7 347 338 313 278 205 228 257
168 169 167 164 155 155 159 158 151 147 149 138 118 108 87 71 67 76 105 154 139 137 131 134 134 134 135 144 139 130 128 144 339 122 136 137 231 304 324 311 295 278 256
160 164 166 167 167 168 163 156 152 146 141 134 134 136 139 150 175 175 175 145 135 142 143 143 143 144 144 149 161 134 137 135 139 341 83 162 165 156 309 321 318 303 283
159 156 162 165 162 156 153 152 141 135 140 142 144 141 135 149 141 129 127 138 135 154 151 149 148 149 157 157 144 129 127 141 148 162 183 79 76 130 156 277 311 321 306
156 151 151 143 142 141 147 150 146 150 154 151 150 150 148 145 134 133 152 161 129 170 164 156 159 163 165 170 172 156 146 149 135 135 137 148 161 194 169 211 269 292 298
141 148 146 144 146 148 153 161 156 158 174 163 162 162 158 155 157 160 168 172 182 215 215 184 180 178 182 182 167 155 161 167 156 166 179 181 201 181 165 163 239 285 299
138 138 144 143 150 164 170 171 163 168 174 169 169 159 157 157 167 173 175 189 198 209 207 198 198 200 196 191 176 178 196 178 177 184 175 182 231 183 164 166 162 330 328
129 131 135 143 155 171 179 173 169 170 173 170 163 162 163 165 176 182 182 189 200 200 189 195 204 207 201 198 183 191 209 193 194 196 188 203 233 216 206 173 161 159 204
108 105 133 149 157 167 171 166 159 165 163 164 170 171 178 178 181 179 186 187 198 196 182 195 200 214 214 207 191 192 203 192 208 188 171 253 254 224 215 187 166 165 168
147 149 148 162 158 145 142 142 147 152 156 167 170 169 184 187 183 185 191 190 190 185 187 199 203 213 224 213 190 199 193 193 207 195 178 211 246 260 264 196 164 159 145
142 143 141 136 132 127 130 147 150 164 174 172 163 176 192 192 188 196 196 191 187 189 191 196 197 207 213 210 200 205 200 196 202 207 196 214 211 216 243 214 180 197 179
108 114 119 123 132 149 151 163 160 166 170 164 160 172 187 193 200 204 196 188 188 193 194 190 198 209 213 217 213 205 209 210 212 208 205 215 192 209 224 202 193 214 205
116 120 129 153 158 181 173 162 158 174 179 170 167 181 206 208 204 198 187 181 183 183 192 201 211 214 211 216 218 210 211 216 220 216 213 214 200 205 211 208 209 201 185
122 140 147 162 183 201 200 194 180 181 180 173 186 212 228 215 193 192 186 182 185 193 192 195 224 238 225 225 216 211 211 214 225 232 226 222 208 205 205 202 201 184 194
162 181 169 164 179 203 191 208 198 195 178 179 199 207 212 202 198 203 193 191 201 199 191 204 215 239 252 238 222 212 212 209 210 222 232 231 218 220 217 217 209 198 198
170 181 197 192 200 212 209 212 202 175 178 200 213 215 212 210 213 214 196 203 211 210 208 213 215 238 254 236 225 225 214 214 217 216 219 236 231 204 211 230 247 254 241
162 182 192 209 231 231 226 225 191 180 192 206 217 223 220 223 223 213 216 220 215 210 215 222 222 232 253 242 232 227 217 217 222 215 210 212 232 232 206 211 252 273 270
154 176 190 208 239 237 224 218 214 207 212 226 230 229 217 218 227 228 228 224 217 226 228 224 225 233 254 245 236 226 220 220 227 224 214 203 211 234 213 184 233 284 295
55 110 104 84 228 242 197 197 217 210 216 224 224 222 223 223 227 227 229 228 217 229 237 239 233 228 240 239 220 208 206 211 221 227 217 200 212 228 219 194 206 252 273
349 31 83 120 233 225 178 224 219 220 222 225 222 224 224 222 227 230 229 224 216 219 234 243 244 236 234 224 219 208 198 205 201 204 219 229 225 232 235 216 214 230 243
345 358 317 292 289 224 164 237 244 236 226 216 211 224 226 230 232 237 241 222 204 210 228 233 254 252 239 227 224 213 210 193 188 210 217 224 224 233 239 234 243 249 256
323 306 253 285 303 283 210 240 256 248 221 211 216 224 227 231 218 221 237 235 212 212 224 213 226 251 254 244 225 207 206 199 193 211 216 227 242 248 249 252 258 245 217
319 321 278 261 283 278 262 255 257 239 210 214 242 238 215 268 248 233 231 220 218 220 226 216 216 232 247 241 221 194 188 187 192 199 199 219 230 238 256 272 256 233 214
299 317 260 259 267 271 272 269 260 221 193 199 213 211 203 225 239 241 242 226 225 214 209 212 205 201 219 231 201 179 184 184 183 158 130 110 90 335 309 297 286 276 274
286 304 293 282 276 268 272 275 265 209 192 221 220 212 214 230 229 231 294 302 257 237 215 210 206 215 212 210 196 188 192 178 164 150 157 170 186 207 228 235 258 257 241